STARLINK-5575 (55381 NORAD) Tracking and Keplerian Element Data

This shows tracking and keplerian element data for the satellite.

Feedback or suggestion? Click here.




ElementValue
Catalog55381
NameSTARLINK-5575
Epoch Orbit1588
Epoch Day126.8999037
Epoch Year2023
RAAN191.9686
Inclination42.9996
Eccentricity0.0001242
Argument of Perigee272.7373
Mean Anonmoly87.3327
Mean Motion15.0254075
Decay Rate2.556E-05
L11 55381U 23013BC 23126.89990370 .00002556 00000+0 20419-3 0 9996
L22 55381 42.9996 191.9686 0001242 272.7373 87.3327 15.02540750 15884



Live tracking and technical data element details for STARLINK-5575 (NORAD 55381). STARLINK-5575 can be tracked NOW for your location showing map with azimuth and elevation plus other details from your city location.







IsCatalogInMostPopularTable: catalog: 55381, numindb: 1
Update: records affected: 1



GetName: 55381 STARLINK-5575

Hit Count: updated at: Mon, 05 Jun 2023 19:31:02 GMT